Preview of NWS' New Version of Forecast
This preview is not operational and should not be used for support decisions.
Latest weather observations around

Bowling Green, Bowling Green-Warren County Regional Airport (KBWG)

Using English Units (Switch to International System of Units)
Date/ Time (CDT) Wind (mph) Vis. (mi) Weather Sky Cond. Temp (°F) Rel. Humidity Wind Chill (°F) Heat Index (°F) Pressure Precip. (in)
Air Dwpt 6 hour Altimeter (inHg) Sea level (inHg) 1 hr 3 hr 6 hr
Max Min
Mar 26 16:53 N 8 10 Clear CLR 55 18     23%     30.3 30.3      
Mar 26 15:53 N 10 10 Clear CLR 54 19     25%     30.3 30.3      
Mar 26 14:53 ENE 11 10 Clear CLR 54 20     26%     30.31 30.31      
Mar 26 13:53 NE 10 10 Clear CLR 53 20     27%     30.32 30.32      
Mar 26 12:53 NE 11 10 Clear CLR 51 18     27%     30.33 30.33      
Mar 26 11:53 N 7 10 Clear CLR 49 17     28% 46   30.34 30.34      
Mar 26 10:53 NE 7 10 Clear CLR 46 17     31% 42   30.35 30.35      
Mar 26 09:53 NNE 9 10 Clear CLR 44 20     38% 39   30.34 30.34      
Mar 26 08:53 NE 11 10 Clear CLR 40 19     43% 33   30.33 30.33      
Mar 26 07:53 NE 11 10 Clear CLR 37 19     48% 29   30.32 30.32      
Mar 26 06:53 N 5 10 Clear CLR 36 18     48% 32   30.3 30.3      
Mar 26 05:53 NE 8 10 Clear CLR 36 20     52% 30   30.27 30.28      
Mar 26 04:53 NE 7 10 Clear CLR 38 20     48% 33   30.25 30.25      
Mar 26 03:53 N 6 10 Clear CLR 39 28     64% 35   30.23 30.24      
Mar 26 02:53 NNE 7 10 Clear CLR 41 31     67% 36   30.23 30.23      
Mar 26 01:53 N 8 10 Clear CLR 44 35     70% 40   30.22 30.22      
Mar 26 00:53 N 3 10 Clear CLR 45 37     74% 44   30.22 30.22      
Mar 26 00:03 N 3 10 Partly Cloudy SCT027 SCT036 46 38     73% 45   30.22        
Mar 25 23:53 N 5 10 Mostly Cloudy BKN027 46 38     73% 44   30.21 30.21      
Mar 25 22:53 N 5 10 Cloudy BKN026 OVC050 48 39     71% 46   30.2 30.2      
Mar 25 21:53 N 11 10 Cloudy OVC024 48 39     71% 43   30.19 30.19      
Mar 25 20:53 N 9 10 Cloudy OVC017 48 40     73% 44   30.16 30.16      
Mar 25 19:53 N 10 10 Cloudy OVC016 49 41     74% 45   30.13 30.13      
Mar 25 18:53 NNE 9 10 Cloudy OVC017 51 43     74%     30.1 30.09      
Mar 25 17:53 N 8 10 Cloudy OVC020 53 45     74%     30.06 30.06      
Mar 25 16:53 N 10 10 Cloudy OVC015 55 47     74%     30.03 30.02      
Mar 25 16:49 N 9 10 Cloudy OVC015 55 46     72%     30.03        
Mar 25 16:05 NNW 8 6 Haze BKN011 OVC019 55 50     83%     30.01        
Mar 25 15:53 N 11 7 Cloudy BKN017 BKN021 OVC031 56 49     77%     30 30      
Mar 25 15:40 NNW 13 10 Cloudy BKN021 OVC030 58 49     72%     30        
Mar 25 14:53 WNW 9 10 Cloudy FEW022 OVC040 61 50     67%     29.98 29.97      
Mar 25 14:48 NW 9 10 Cloudy SCT022 OVC040 61 50     68%     29.98        
Mar 25 14:29 NW 7 10 Cloudy BKN022 BKN028 OVC033 59 49     69%     29.98        
Mar 25 14:13 NNW 10 10 Mostly Cloudy FEW018 SCT026 BKN031 62 50     65%     29.98        
Mar 25 13:53 NW 9 10 Cloudy BKN019 OVC024 61 51     70%     29.99 29.98      
Mar 25 12:53 6 8 Cloudy BKN019 BKN024 OVC034 59 52     78%     29.99 29.98     0
Mar 25 12:41 NW 11 8 Mostly Cloudy BKN015 BKN024 BKN034 60 52     75%     29.98        
Mar 25 12:29 NW 10 9 Mostly Cloudy SCT019 BKN034 BKN041 63 53     70%     29.98        
Mar 25 12:21 NNW 11 9 Mostly Cloudy SCT016 BKN022 BKN036 62 52     70%     29.98        
Mar 25 11:53 NW 9 10 Cloudy FEW020 BKN030 OVC037 61 52     72%     29.97 29.96      
Mar 25 10:53 W 11 10 Mostly Cloudy BKN019 BKN027 BKN035 61 53     75%     29.96 29.95      
Mar 25 09:53 SW 9 10 Partly Cloudy SCT031 59 52     78%     29.95 29.95   0  
Mar 25 08:53 SW 5 10 Cloudy BKN035 OVC045 55 50     83%     29.95 29.95      
Mar 25 07:53 Calm 9 Mostly Cloudy BKN043 BKN080 BKN095 54 51     90%     29.94 29.94 0    
Mar 25 06:53 S 7 9 Clear   54 51     90%     29.93 29.93      
Mar 25 05:53 SW 6 10 Cloudy OVC038 54 50     86%     29.93 29.93      
Mar 25 04:53 SW 10 10 Mostly Cloudy SCT041 SCT048 BKN070 55 50     83%     29.92 29.91 0    
Mar 25 03:53 S 10 10 Light Rain FEW039 BKN075 54 50     86%     29.93 29.92 0 0  
Mar 25 02:53 SSW 9 5 Light Rain BKN060 OVC075 55 49     80%     29.98 29.98 0    
Mar 25 02:38 WSW 7 3 Thunderstorms and Rain FEW047 SCT060 OVC075 56 49     77%     30   0    
Mar 25 02:18 NW 10 7 Light Rain SCT055 OVC075 58 46     65%     30.01   0    
Mar 25 01:53 WSW 7 10 Cloudy SCT055 BKN070 OVC110 61 41     48%     29.97 29.96      
Mar 25 00:53 S 11 10 Mostly Cloudy SCT055 BKN090 61 41     48%     29.97 29.96      
Mar 24 23:53 S 7 10 Mostly Cloudy SCT060 SCT075 BKN090 61 40     46%     30 29.99      
Mar 24 22:53 S 10 10 Mostly Clear FEW075 61 40     46%     30.01 30      
Mar 24 21:53 S 8 10 Mostly Clear FEW070 60 39     46%     30.02 30.01      
Mar 24 20:53 SSE 7 10 Partly Cloudy SCT065 60 41     49%     30.04 30.03      
Mar 24 19:53 SE 3 10 Cloudy OVC065 62 42     48%     30.04 30.04      
Mar 24 18:53 S 7 10 Mostly Clear FEW065 63 42     46%     30.05 30.04     0
Mar 24 17:53 SSW 15 10 Clear CLR 66 42     42%     30.06 30.05      
Mar 24 16:53 SSW 13 10 Clear CLR 67 42     40%     30.06 30.06      
Mar 24 15:53 S 8 10 Mostly Clear FEW065 64 43     46%     30.08 30.08   0  
Mar 24 14:53 S 6 10 Cloudy OVC060 58 43     57%     30.12 30.12      
Mar 24 13:53 S 6 10 Cloudy BKN075 OVC090 58 44     60%     30.16 30.16 0    
Mar 24 12:53 SW 3 10 Light Rain OVC070 55 40     57%     30.19 30.19 0   0
Mar 24 11:53 W 8 10 Cloudy BKN080 OVC100 58 30     34%     30.2 30.2      
Mar 24 10:53 NW 5 10 Mostly Cloudy FEW085 BKN110 58 31     36%     30.21 30.2      
Mar 24 09:53 SSW 6 10 Clear CLR 59 31     34%     30.2 30.2      
Mar 24 08:53 Calm 10 Clear CLR 48 34     58%     30.2 30.2      
Mar 24 07:53 Calm 10 Clear CLR 44 36     73%     30.2 30.2      
Mar 24 06:53 Calm 10 Clear CLR 42 32     67%     30.19 30.19      
Mar 24 05:53 Calm 10 Clear CLR 43 32     65%     30.18 30.18      
Mar 24 04:53 Calm 10 Clear CLR 41 32     70%     30.18 30.18      
Mar 24 03:53 Calm 10 Clear CLR 40 31     70%     30.2 30.19      
Mar 24 02:53 Calm 10 Clear CLR 41 28     60%     30.21 30.21      
Mar 24 01:53 Calm 10 Clear CLR 42 31     64%     30.24 30.24      
Mar 24 00:53 Calm 10 Clear CLR 45 27     49%     30.24 30.24      
Mar 23 23:53 Calm 10 Clear CLR 46 26     45%     30.24 30.24      
Mar 23 22:53 Calm 10 Clear CLR 47 24     40%     30.23 30.23      
Mar 23 21:53 Calm 10 Clear CLR 46 27     47%     30.25 30.25      
Mar 23 20:53 Calm 10 Clear CLR 48 23     37%     30.25 30.25      
Mar 23 19:53 Calm 10 Clear CLR 53 16     23%     30.25 30.25      
Mar 23 18:53 E 3 10 Clear CLR 56 19     23%     30.24 30.25      
Mar 23 17:53 ENE 6 10 Clear CLR 60 15     17%     30.24 30.24      
May 15 02:53 SSW 3 10 Clear CLR 74 67     79%   75 29.92 29.9      
May 14 10:53 N 5 10 Clear CLR 87 69     55%   91 30.05 30.03      
May 11 21:53 S 8 10 Clear CLR 77 61     58%   77 29.99 29.97      
Jun 11 22:53 Calm 10 Clear CLR 77 65     66%   78 30.08 30.06      
Jun 11 09:53 S 8 10 Mostly Clear FEW060 83 67     59%   86 30.15 30.14      
Jun 11 08:53 S 8 10 Clear CLR 79 65     62%   80 30.16 30.14      
Jun 10 21:53 SSE 5 10 Clear CLR 72 61     68%   72 30.05 30.03      
Jun 10 11:53 S 13 10 Mostly Clear FEW055 83 59     44%   83 30.07 30.05      
Jun 09 15:53 7 10 Clear CLR 80 54     41%   80 29.95 29.93      
Jun 09 02:53 Calm 10 Clear   54 53     97%     29.94 29.93      
Jun 07 07:53 NE 9 10 Clear CLR 65 56     73%     29.98 29.96      
Jun 06 04:51 Calm 0.5 Fog VV002 64 64     100%     29.83        
Jun 06 04:27 Calm 0.75 Fog/Mist OVC002 65 65     100%     29.82        
Jun 05 13:53 Calm 10 Cloudy BKN014 OVC021 75 70     84%   76 29.81 29.79